Location: Alsip
(41.6689°N, 87.7387°W)
Time: 13:51:16
(UTC+00:00)

Cosmos 1459 Rocket - Pass Details

Date: 14 July 2020
Orbit: 938 x 999 km, 83.0° (Epoch: 04 August)

Event Time Altitude Azimuth Distance (km) Brightness Sun altitude
Exits shadow 07:50:53 37° 237° (WSW) 1,427 4.4 -21.5°
Maximum altitude 07:52:44 49° 282° (WNW) 1,216 4.3 -21.3°
Drops below altitude 10° 07:58:41 10° 357° (N) 2,699 7.1 -20.7°
Sets 08:01:19 0° 3° (N) 3,659 8.1 -20.5°
